Wind_Speed
21 21 21 19 20 21 21 19 18 19 18 16 14 14 14 14 15 16 18 18 18 20 20 17 16 15 5 4 8 7 8 5 11 10 4 3 3 2 1 4 3 5 3 3 9 8 8
22 23 23 22 22 21 21 22 20 18 19 18 16 15 14 15 15 17 18 19 19 19 19 15 13 9 2 3 4 2 4 7 6 8 6 5 5 5 3 4 3 2 6 3 4 6 4
25 24 25 24 23 22 21 19 20 20 18 19 19 17 16 15 15 17 18 20 20 18 17 12 9 6 0 12 3 1 3 3 5 9 5 6 3 1 2 6 4 3 5 2 3 3 2
28 27 25 26 25 23 22 19 18 20 20 20 17 16 17 15 15 18 19 20 20 18 14 8 4 2 7 5 6 17 13 13 14 11 10 7 6 4 2 5 7 5 4 3 1 3 4
31 29 28 26 26 25 23 22 19 19 20 19 18 17 18 15 15 17 20 21 22 17 8 4 1 1 9 10 9 12 13 6 8 12 8 10 1 2 5 2 4 6 2 2 5 4 3
36 32 30 29 27 26 26 23 23 22 20 20 17 16 18 16 14 16 20 22 15 6 1 1 1 4 7 3 2 7 10 11 3 2 2 4 5 3 4 3 2 1 3 3 3 5 5
39 38 33 32 28 26 25 26 24 23 21 18 18 18 17 15 14 15 17 8 3 1 3 8 4 4 5 12 7 4 7 8 3 6 0 4 4 3 7 5 3 1 2 3 5 4 3
40 41 38 36 32 29 27 25 24 22 21 19 18 18 16 15 13 13 12 2 2 2 7 12 15 8 16 5 5 5 11 6 4 5 1 4 3 7 4 3 5 3 3 4 5 3 7
43 39 42 39 38 33 29 28 25 23 21 19 17 16 16 14 11 11 6 7 13 8 4 7 6 6 5 12 7 6 7 4 4 6 5 5 4 3 2 0 1 2 1 3 5 6 1
41 40 42 43 41 39 32 29 28 25 22 20 18 16 16 12 6 5 4 2 17 11 2 6 5 7 7 7 4 11 10 6 2 9 5 5 3 4 4 1 3 2 3 3 4 1 3
46 45 43 44 43 42 38 32 30 24 23 21 19 16 17 17 4 4 4 12 3 1 3 3 4 3 8 10 3 6 11 4 8 5 5 5 6 5 4 5 5 6 1 4 3 4 2
49 45 43 42 43 43 41 36 32 29 25 21 21 18 16 19 17 13 9 11 5 4 6 4 7 6 6 6 3 3 6 3 3 5 2 5 2 2 4 1 5 3 1 5 4 3 1
51 49 46 43 40 43 42 39 35 29 25 22 21 19 20 19 5 10 5 2 3 4 4 4 6 6 7 6 5 4 5 5 6 4 3 2 3 2 1 1 4 4 5 3 4 4 4
53 51 47 44 45 44 42 41 36 32 26 22 20 18 20 23 14 5 2 3 10 7 7 5 3 4 8 6 6 6 5 5 4 3 4 5 5 6 3 4 4 1 6 4 3 3 4
56 53 49 46 45 45 44 42 40 32 32 23 19 19 17 24 19 9 1 9 7 6 4 4 3 5 4 4 5 6 7 7 9 9 7 4 4 2 3 2 4 2 3 3 6 3 3
58 55 51 47 45 46 42 42 40 35 29 28 21 12 11 20 25 6 4 20 9 6 5 5 8 6 8 7 7 7 8 5 6 8 7 8 1 1 3 3 5 3 5 1 2 3 3
61 57 53 49 46 44 45 42 40 33 32 30 17 4 16 21 20 3 10 12 15 15 4 3 4 2 8 7 9 6 8 5 6 6 6 5 5 4 3 5 7 2 2 2 4 4 4
63 59 55 51 48 47 49 45 42 41 32 33 11 7 29 34 9 4 12 6 6 16 4 4 3 6 5 9 8 9 10 9 9 10 10 8 6 5 10 3 4 3 5 5 4 4 1
63 61 56 51 47 49 53 49 44 41 42 31 7 5 27 31 13 16 7 15 11 9 7 6 5 2 4 5 6 7 8 4 6 8 10 8 2 2 7 4 2 4 5 4 4 3 6
62 60 56 52 48 49 50 48 48 43 46 27 4 8 6 11 12 20 20 13 21 12 16 1 3 3 2 4 5 8 7 4 5 5 8 8 4 7 8 8 4 3 4 4 6 3 4
61 62 57 53 50 55 53 48 48 46 45 29 5 8 7 14 21 17 19 15 22 15 12 8 5 8 3 4 4 3 3 3 2 6 2 6 5 4 3 3 4 5 5 7 6 6 6
60 62 57 54 54 55 53 52 46 49 45 20 7 5 4 2 17 24 17 20 24 22 8 10 17 6 14 10 8 6 6 4 6 3 3 1 3 3 3 3 4 4 6 6 6 3 6
63 60 57 54 56 54 55 52 49 48 44 11 18 3 5 11 20 19 27 23 23 19 19 19 13 12 6 13 9 12 6 4 10 10 6 5 6 4 4 2 3 6 7 8 6 5 6
61 57 55 54 56 56 52 51 50 49 51 22 24 1 3 9 14 22 20 21 23 25 20 16 23 10 6 4 3 5 8 10 9 6 4 6 5 3 3 3 2 7 3 6 5 2 5
56 54 52 53 55 55 52 51 52 46 47 37 11 3 2 4 15 13 21 23 14 19 19 20 10 17 8 2 2 3 5 5 4 7 4 3 6 3 5 4 4 5 4 6 6 2 3
51 50 49 52 52 50 50 50 50 40 44 39 33 12 3 1 8 10 20 19 17 17 11 14 5 5 5 3 3 6 5 6 4 3 3 5 6 5 3 5 7 7 4 3 5 2 5
46 46 47 48 47 46 45 45 44 41 40 36 22 34 6 2 3 9 11 14 12 10 9 5 14 3 2 3 3 4 3 6 7 10 6 3 3 5 2 3 7 7 5 5 6 7 8
40 41 42 43 43 41 42 43 40 38 45 30 26 20 6 1 4 5 5 7 6 13 12 4 6 1 2 4 4 4 3 6 4 5 7 7 7 4 3 3 6 4 5 8 6 3 6
34 35 36 37 38 40 40 39 37 36 38 32 9 29 14 1 3 12 21 28 12 6 11 5 4 7 6 4 2 2 2 2 4 3 2 2 7 6 8 6 3 2 5 1 4 8 5
Wind_Direction
272 270 267 268 265 265 254 257 261 257 259 268 278 287 296 303 310 311 315 319 327 327 327 326 330 341 349 359 252 314 343 159 154 151 177 149 153 156 294 260 221 209 272 262 173 162 162
272 271 268 268 265 268 268 256 255 258 253 260 272 282 290 298 307 308 313 316 322 326 324 324 334 353 8 308 291 336 353 167 168 167 190 191 195 194 261 258 194 198 251 139 132 197 203
272 272 270 269 271 272 268 265 255 254 250 255 260 272 284 293 302 306 309 312 318 323 320 319 337 359 287 237 150 196 303 264 262 196 188 220 215 99 234 295 310 323 72 33 215 194 71
270 269 267 269 270 268 271 267 264 260 252 250 250 263 276 286 297 303 307 309 314 317 314 311 341 11 252 271 243 261 267 270 247 248 253 274 276 207 191 304 347 63 26 91 300 125 56
265 266 265 262 265 268 267 268 262 264 253 251 245 255 267 281 293 301 306 309 308 302 303 292 27 60 267 301 260 250 244 216 215 238 246 283 120 80 5 71 6 5 137 187 351 154 72
261 260 263 262 261 260 265 264 268 263 260 247 244 248 259 276 287 299 309 314 304 296 141 154 194 315 270 294 279 293 251 217 167 162 341 49 48 47 15 75 209 290 5 25 189 236 178
258 257 258 260 258 259 259 264 263 266 262 254 242 245 252 265 281 298 316 325 329 23 204 206 195 254 274 335 301 249 210 155 82 58 151 349 72 252 235 224 140 165 156 228 231 225 209
252 253 253 255 257 254 254 254 258 258 263 257 245 246 248 258 270 290 307 268 270 333 303 233 242 249 261 293 296 284 158 130 136 169 153 14 219 231 202 260 144 312 51 346 298 16 190
263 252 250 250 252 252 249 252 251 255 248 256 247 240 239 244 263 278 248 248 331 279 273 280 204 203 210 159 215 256 145 135 151 145 194 173 241 299 247 185 273 213 77 263 243 340 221
257 258 256 243 246 248 249 247 248 247 251 247 247 231 232 224 253 232 249 267 327 176 309 267 219 252 168 173 238 208 181 146 106 199 171 226 259 187 284 205 128 308 53 255 257 348 223
251 253 255 243 239 242 245 244 244 241 243 239 242 226 232 204 189 195 150 335 101 121 325 232 185 162 156 164 160 218 179 67 170 180 130 260 164 178 201 227 163 233 47 282 239 198 88
244 245 247 252 235 236 238 238 238 238 239 240 237 229 229 208 239 235 282 325 142 61 251 290 153 163 145 180 210 145 160 91 161 117 198 234 172 214 236 256 177 158 112 37 36 69 45
239 240 241 242 247 225 229 234 233 232 228 231 232 230 224 208 226 242 259 172 157 194 318 223 181 161 175 167 215 150 144 156 154 141 219 317 212 223 167 52 44 81 58 337 3 12 220
233 234 236 234 236 229 220 228 230 227 227 222 227 229 230 218 212 195 209 171 215 216 239 301 176 115 183 151 220 181 152 198 268 116 118 177 308 180 181 141 179 156 157 160 208 181 265
229 229 230 230 229 235 213 218 224 223 226 224 221 229 227 224 210 224 185 215 195 220 227 229 83 134 235 204 168 147 188 202 198 175 142 147 266 262 225 162 156 175 206 170 105 26 60
225 224 224 225 225 228 219 207 215 219 212 215 202 217 215 213 207 150 216 222 214 222 354 350 197 174 186 203 168 155 177 214 221 180 148 204 210 172 301 53 283 171 163 66 5 144 234
219 218 219 220 219 220 222 200 209 210 202 205 181 213 198 199 173 149 217 213 215 249 348 325 328 252 208 177 181 181 196 253 223 167 119 139 128 290 30 197 199 138 217 83 120 141 173
218 212 213 215 217 216 214 195 202 205 196 197 184 200 168 171 186 197 222 206 224 237 243 280 294 241 230 194 180 196 203 208 178 153 158 199 146 192 217 179 161 179 187 153 134 238 166
216 207 207 210 212 212 205 189 194 205 196 183 186 181 170 172 198 212 204 210 232 214 212 202 249 219 11 219 188 183 203 190 162 157 161 177 206 101 338 359 30 196 196 148 114 77 192
212 200 200 204 206 198 187 183 191 198 195 188 188 174 174 192 219 201 196 197 211 215 250 73 294 300 290 282 228 182 185 202 144 203 150 103 136 168 197 207 176 178 217 157 140 127 195
206 194 194 198 199 190 183 185 196 192 196 188 205 200 186 192 209 206 192 196 200 210 204 200 256 224 187 306 339 162 136 142 46 155 87 130 156 162 238 187 185 196 220 173 195 206 164
199 188 188 193 192 186 180 186 195 190 200 206 190 199 147 235 199 199 197 207 201 206 191 205 225 197 222 228 226 227 152 181 185 146 150 254 155 128 136 24 1 235 225 201 217 205 259
185 184 185 188 183 181 181 186 192 196 192 223 208 290 220 203 190 193 212 204 205 195 218 238 216 222 201 228 221 242 246 170 176 148 157 128 132 118 221 45 350 315 224 217 212 207 183
177 176 181 185 183 183 180 186 199 200 194 211 187 148 222 200 191 207 194 202 206 206 207 196 233 228 243 97 78 45 54 58 59 36 133 133 102 75 179 59 306 248 283 238 196 264 242
168 172 177 178 177 178 181 189 198 196 193 206 230 173 247 209 198 207 202 198 208 214 222 223 237 226 174 208 54 55 357 36 15 35 360 115 120 111 142 184 295 292 184 160 164 253 330
161 167 172 175 176 177 182 188 198 194 194 195 223 268 272 325 213 181 185 190 198 211 227 234 243 231 102 125 123 172 178 161 167 78 39 56 66 119 150 154 209 234 259 155 116 279 200
159 165 170 172 175 180 184 190 196 198 190 191 213 229 238 273 278 194 191 189 196 186 222 180 198 169 75 131 133 171 214 165 154 165 177 62 27 154 133 193 284 241 205 138 149 232 162
159 165 169 174 180 185 191 197 195 191 185 182 200 228 243 191 293 328 327 167 188 203 206 175 131 241 65 158 171 200 139 205 106 165 176 158 148 175 88 69 280 184 124 169 206 72 132
158 166 173 179 183 188 190 193 192 181 177 187 204 224 183 112 294 316 295 275 247 230 197 211 202 159 179 138 167 142 114 59 138 202 145 205 182 177 176 208 227 267 238 152 154 140 154
Height
825 823 823 823 823 822 822 823 822 822 822 822 821 820 819 818 817 816 814 812 808 806 803 800 797 794 793 794 783 770 769 769 770 772 776 776 778 779 786 781 777 781 774 766 767 771 768
821 821 819 819 819 819 818 818 819 819 818 819 819 818 817 816 814 814 813 811 807 804 802 800 796 795 796 796 772 771 770 770 772 772 775 775 775 774 779 779 777 770 770 769 772 772 764
816 815 816 814 814 815 815 814 814 815 815 816 816 815 815 814 812 812 810 809 805 802 800 799 796 795 796 781 771 770 770 771 771 772 772 771 771 773 772 777 766 768 778 775 775 773 771
811 811 810 812 810 810 812 811 810 811 811 811 812 812 812 812 810 810 808 806 803 800 797 798 795 796 789 770 770 768 768 767 768 772 771 770 769 771 773 770 772 779 778 789 769 773 774
803 805 806 805 806 806 806 809 808 809 808 808 807 809 810 809 808 807 806 803 800 797 795 797 797 796 785 769 768 763 765 767 765 769 769 769 768 774 776 785 794 793 797 787 784 774 779
797 797 800 801 800 800 803 801 805 806 805 804 803 805 807 807 806 805 803 800 796 793 795 796 796 799 773 767 762 761 762 765 764 767 771 770 779 787 792 794 810 798 796 792 792 780 781
790 791 792 794 794 795 796 799 799 802 802 800 799 802 804 803 805 803 802 799 798 796 794 785 781 779 770 766 762 758 760 763 764 770 785 780 790 797 789 786 784 784 790 795 791 772 779
780 783 783 788 789 790 791 794 795 797 799 798 796 799 801 802 802 802 801 801 798 802 793 777 773 773 767 770 774 759 758 767 771 786 785 791 792 781 775 779 778 784 785 791 777 769 780
770 773 775 778 782 784 784 789 790 792 792 795 795 795 799 800 801 800 799 796 795 795 798 772 765 764 762 766 769 763 757 763 772 783 789 795 782 773 772 776 780 783 786 789 788 781 775
759 761 766 768 772 777 779 782 786 786 789 791 793 793 795 799 802 797 795 793 789 791 802 774 762 754 755 757 763 752 753 760 771 780 785 787 774 776 778 780 778 788 778 782 786 790 802
748 751 753 758 762 768 772 775 781 780 785 786 790 791 793 795 793 794 794 793 791 792 818 757 753 743 745 756 750 752 750 756 774 777 782 784 779 780 781 776 773 784 772 780 777 786 791
734 739 743 747 752 758 763 768 773 776 780 783 787 789 790 792 792 788 790 791 792 808 810 757 745 752 755 751 750 746 752 751 758 773 774 776 769 771 771 766 769 768 774 785 790 795 810
719 725 730 735 742 747 753 760 767 771 775 779 783 786 787 788 789 788 790 790 801 807 762 754 750 750 753 757 756 752 758 768 777 788 788 777 773 766 766 773 771 776 791 817 819 826 817
703 710 717 723 731 736 743 750 759 765 770 774 779 782 782 784 786 787 788 792 796 776 765 744 741 749 757 752 755 756 764 774 765 770 791 794 799 773 763 770 778 780 790 819 816 828 816
688 695 703 711 719 725 732 739 751 758 765 770 776 778 778 778 784 786 787 784 775 768 750 749 743 756 758 750 752 756 765 769 765 764 783 792 787 767 765 765 767 778 790 782 814 824 832
671 680 688 698 706 715 722 731 741 751 759 765 770 776 771 774 782 786 786 763 757 752 747 747 754 748 761 758 758 759 766 753 756 754 753 773 784 770 768 764 765 769 771 794 805 810 815
651 663 675 685 694 704 714 722 733 743 752 760 768 769 760 771 779 782 771 757 755 744 748 752 750 745 747 752 753 761 757 748 746 752 754 766 774 782 770 774 775 778 781 783 793 811 816
633 646 660 671 681 692 703 712 725 734 745 755 758 758 754 764 770 763 762 756 751 746 749 751 748 746 745 745 750 753 754 745 737 747 760 761 777 792 778 764 760 763 772 782 812 799 812
616 628 644 658 670 680 692 701 715 725 735 744 746 746 750 754 750 745 752 753 749 746 747 751 748 741 738 742 750 745 746 734 738 742 754 758 778 794 784 773 765 768 770 774 786 801 805
598 612 630 646 658 669 679 692 705 716 727 734 737 739 741 745 729 734 746 746 748 741 746 746 747 741 739 737 733 742 742 734 735 738 739 745 768 773 786 775 766 767 764 768 779 810 795
584 599 617 634 647 659 671 683 697 706 717 725 725 714 709 716 722 728 735 739 742 739 740 740 747 744 745 748 737 738 737 737 736 741 741 743 761 763 761 759 758 760 761 770 775 775 787
572 587 605 624 638 652 663 677 688 698 710 715 710 705 708 708 717 726 729 725 729 733 734 736 738 732 737 747 740 739 735 738 737 737 741 745 765 755 766 765 766 763 760 765 767 765 768
561 579 598 616 629 643 657 670 682 691 702 705 703 702 702 704 708 717 703 715 720 729 729 728 729 733 737 733 728 723 726 719 721 733 747 750 764 780 777 779 776 789 771 762 758 755 756
554 575 594 610 624 639 652 664 676 684 689 700 697 701 701 699 702 694 704 714 718 715 725 724 726 733 725 720 722 723 728 728 730 734 733 754 765 786 795 791 804 759 750 751 756 756 754
555 574 592 607 620 634 646 659 669 678 687 697 699 702 699 701 694 699 706 710 716 716 722 722 717 715 721 727 737 739 753 739 739 742 740 738 767 790 791 794 774 753 754 754 753 754 750
561 577 593 607 620 632 643 654 665 675 683 695 701 701 701 695 689 690 700 702 710 711 724 714 713 714 721 735 749 744 751 742 750 746 748 752 756 769 802 791 791 758 745 738 746 774 751
568 582 595 608 620 631 641 651 661 669 681 692 698 703 705 699 686 685 688 695 698 705 706 712 711 716 716 747 754 748 747 730 749 753 761 773 780 778 811 796 774 748 739 740 764 765 749
577 589 600 611 621 630 640 648 657 667 675 685 692 696 696 700 693 689 687 686 688 692 699 705 713 716 731 733 741 742 750 736 744 739 746 751 774 791 799 800 771 736 740 750 745 742 745
585 595 604 613 621 630 639 647 657 666 672 684 692 696 696 697 694 693 688 685 686 684 693 699 692 696 703 717 732 738 738 756 739 752 735 743 742 753 755 755 737 736 734 732 735 738 746